Oasis of the Seas — C6XS7 — position and weather

sailwx.info

Track history (hours):
 
Tides and Currents Weather Stations Pressure Air Temp Water Temp Dewpoint Dewpoint Depression Visibility Wind Speed Wind Dir Waves Ship Positions

Oasis of the Seas

Last reported at 2015-Aug-30 06:00 UTC. Time now 2015-Aug-30 16:01 UTC.
Position N 23°48' W 079°18'.

Length 360 m; draft 9.4 m.

Type: Passenger vessel. MMSI: 311020600.

Wind from 150 at 24 knots

Barometer 1012.0 mb
Air temperature 29.0 ° C
Visibility: greater than 5.4 NM
Dewpoint 27.0 ° C
Water temperature 31.2 ° C

Date/timePositionNaut miles runAvg speedWind from/ knotsBaromVisibWave heightAir tempDewpointWater temp
2015-Aug-30 06:00N 23°48' W 079°18'11116.4 150 / 241012.0 5.4 29.027.031.2
2015-Aug-29 23:11N 25°34' W 079°55'1015.0
2015-Aug-29 22:33N 25°43' W 079°58'1616.2
2015-Aug-29 21:33N 25°59' W 080°03'8 7.6
2015-Aug-29 20:33N 26°05' W 080°07'0 0.0
2015-Aug-29 19:31N 26°05' W 080°07'0 0.0
2015-Aug-29 18:31N 26°05' W 080°07'0 0.0
2015-Aug-29 17:31N 26°05' W 080°07'0 0.0
2015-Aug-29 16:31N 26°05' W 080°07'0 0.0
2015-Aug-29 15:31N 26°05' W 080°07'0 0.0
2015-Aug-29 14:31N 26°05' W 080°07'0 0.0
2015-Aug-29 13:31N 26°05' W 080°07'0 0.0
2015-Aug-29 12:31N 26°05' W 080°07'0 0.0
2015-Aug-29 11:28N 26°05' W 080°07'0 0.0
2015-Aug-29 10:31N 26°05' W 080°07'0 0.2
2015-Aug-29 09:34N 26°05' W 080°07'9 8.8
2015-Aug-29 08:33N 25°60' W 079°59'1818.4
2015-Aug-29 07:33N 25°42' W 079°56'1918.9
2015-Aug-29 06:33N 25°23' W 079°56'48515.5
2015-Aug-27 23:18N 20°34' W 086°59'5 6.0
2015-Aug-27 22:32N 20°29' W 086°59'0 0.0
2015-Aug-27 21:29N 20°29' W 086°59'0 0.0
2015-Aug-27 20:26N 20°29' W 086°59'0 0.0
2015-Aug-27 19:32N 20°29' W 086°59'0 0.0
2015-Aug-27 18:29N 20°29' W 086°59'0 0.0
2015-Aug-27 17:32N 20°29' W 086°59'0 0.0
2015-Aug-27 16:32N 20°29' W 086°59'0 0.0
2015-Aug-27 15:32N 20°29' W 086°59'0 0.0
2015-Aug-27 14:32N 20°29' W 086°59'0 0.0
2015-Aug-27 13:32N 20°29' W 086°59'0 0.0
2015-Aug-27 12:32N 20°29' W 086°59'0 0.4
2015-Aug-27 11:33N 20°29' W 086°59'53 8.1
2015-Aug-27 05:00N 19°36' W 087°06'23 1.0 160 / 81015.0 5.4 29.727.532.1
2015-Aug-26 06:00N 19°36' W 086°42'33614.0 1013.010.8 29.527.531.8
2015-Aug-25 06:00N 23°42' W 082°36'17610.7 120 / 131013.0 5.4 0.530.028.031.8
2015-Aug-24 13:33N 25°21' W 079°56'1110.7
2015-Aug-24 12:33N 25°29' W 079°49'1211.9
2015-Aug-24 11:34N 25°38' W 079°40'1211.9
2015-Aug-24 10:33N 25°48' W 079°33'1212.6
2015-Aug-24 09:33N 25°58' W 079°24'1414.0
2015-Aug-24 08:32N 26°10' W 079°15'3513.7
2015-Aug-24 06:00N 26°06' W 078°36'35 1.4 040 / 151014.010.8 30.027.432.2
2015-Aug-23 06:00N 25°54' W 078°00'9514.1 360 / 101014.0 5.4 28.026.032.2
2015-Aug-22 23:18N 26°08' W 079°44'912.6
2015-Aug-22 22:33N 26°07' W 079°55'1111.0
2015-Aug-22 21:33N 26°06' W 080°07'1 0.5
2015-Aug-22 20:28N 26°05' W 080°07'0 0.0
2015-Aug-22 19:31N 26°05' W 080°07'0 0.0
2015-Aug-22 18:31N 26°05' W 080°07'0 0.0
2015-Aug-22 17:33N 26°05' W 080°07'0 0.0
2015-Aug-22 16:30N 26°05' W 080°07'0 0.0
2015-Aug-22 15:30N 26°05' W 080°07'0 0.0
2015-Aug-22 14:30N 26°05' W 080°07'0 0.0
2015-Aug-22 13:30N 26°05' W 080°07'0 0.0
2015-Aug-22 12:33N 26°05' W 080°07'0 0.0
2015-Aug-22 11:30N 26°05' W 080°07'0 0.0
2015-Aug-22 10:33N 26°05' W 080°07'0 0.0
2015-Aug-22 09:33N 26°05' W 080°07'8 7.6
2015-Aug-22 08:33N 26°01' W 079°60'1414.0
2015-Aug-22 07:33N 25°48' W 079°57'1414.3
2015-Aug-22 06:33N 25°33' W 079°56'27815.0
2015-Aug-21 12:00N 22°54' W 084°06'9012.9 090 / 101015.010.8 0.528.026.732.0
2015-Aug-21 05:00N 22°00' W 085°24'12521.3 090 / 131014.010.8 0.529.9 32.0
2015-Aug-20 23:09N 20°32' W 086°59'3 5.0
2015-Aug-20 22:31N 20°29' W 086°59'0 0.0
2015-Aug-20 21:31N 20°29' W 086°59'60 3.9
2015-Aug-20 06:00N 20°30' W 085°54'   100 / 161013.610.8 0.529.8 32.7
Track history (hours):
 
Tides and Currents Weather Stations Pressure Air Temp Water Temp Dewpoint Dewpoint Depression Visibility Wind Speed Wind Dir Waves Ship Positions

Oasis of the Seas

Last reported at 2015-Aug-30 06:00 UTC. Time now 2015-Aug-30 16:01 UTC.
Position N 23°48' W 079°18'.

Length 360 m; draft 9.4 m.

Type: Passenger vessel. MMSI: 311020600.

Wind from 150 at 24 knots

Barometer 1012.0 mb
Air temperature 29.0 ° C
Visibility: greater than 5.4 NM
Dewpoint 27.0 ° C
Water temperature 31.2 ° C

Date/timePositionNaut miles runAvg speedWind from/ knotsBaromVisibWave heightAir tempDewpointWater temp
2015-Aug-30 06:00N 23°48' W 079°18'11116.4 150 / 241012.0 5.4 29.027.031.2
2015-Aug-29 23:11N 25°34' W 079°55'1015.0
2015-Aug-29 22:33N 25°43' W 079°58'1616.2
2015-Aug-29 21:33N 25°59' W 080°03'8 7.6
2015-Aug-29 20:33N 26°05' W 080°07'0 0.0
2015-Aug-29 19:31N 26°05' W 080°07'0 0.0
2015-Aug-29 18:31N 26°05' W 080°07'0 0.0
2015-Aug-29 17:31N 26°05' W 080°07'0 0.0
2015-Aug-29 16:31N 26°05' W 080°07'0 0.0
2015-Aug-29 15:31N 26°05' W 080°07'0 0.0
2015-Aug-29 14:31N 26°05' W 080°07'0 0.0
2015-Aug-29 13:31N 26°05' W 080°07'0 0.0
2015-Aug-29 12:31N 26°05' W 080°07'0 0.0
2015-Aug-29 11:28N 26°05' W 080°07'0 0.0
2015-Aug-29 10:31N 26°05' W 080°07'0 0.2
2015-Aug-29 09:34N 26°05' W 080°07'9 8.8
2015-Aug-29 08:33N 25°60' W 079°59'1818.4
2015-Aug-29 07:33N 25°42' W 079°56'1918.9
2015-Aug-29 06:33N 25°23' W 079°56'48515.5
2015-Aug-27 23:18N 20°34' W 086°59'5 6.0
2015-Aug-27 22:32N 20°29' W 086°59'0 0.0
2015-Aug-27 21:29N 20°29' W 086°59'0 0.0
2015-Aug-27 20:26N 20°29' W 086°59'0 0.0
2015-Aug-27 19:32N 20°29' W 086°59'0 0.0
2015-Aug-27 18:29N 20°29' W 086°59'0 0.0
2015-Aug-27 17:32N 20°29' W 086°59'0 0.0
2015-Aug-27 16:32N 20°29' W 086°59'0 0.0
2015-Aug-27 15:32N 20°29' W 086°59'0 0.0
2015-Aug-27 14:32N 20°29' W 086°59'0 0.0
2015-Aug-27 13:32N 20°29' W 086°59'0 0.0
2015-Aug-27 12:32N 20°29' W 086°59'0 0.4
2015-Aug-27 11:33N 20°29' W 086°59'53 8.1
2015-Aug-27 05:00N 19°36' W 087°06'23 1.0 160 / 81015.0 5.4 29.727.532.1
2015-Aug-26 06:00N 19°36' W 086°42'33614.0 1013.010.8 29.527.531.8
2015-Aug-25 06:00N 23°42' W 082°36'17610.7 120 / 131013.0 5.4 0.530.028.031.8
2015-Aug-24 13:33N 25°21' W 079°56'1110.7
2015-Aug-24 12:33N 25°29' W 079°49'1211.9
2015-Aug-24 11:34N 25°38' W 079°40'1211.9
2015-Aug-24 10:33N 25°48' W 079°33'1212.6
2015-Aug-24 09:33N 25°58' W 079°24'1414.0
2015-Aug-24 08:32N 26°10' W 079°15'3513.7
2015-Aug-24 06:00N 26°06' W 078°36'35 1.4 040 / 151014.010.8 30.027.432.2
2015-Aug-23 06:00N 25°54' W 078°00'9514.1 360 / 101014.0 5.4 28.026.032.2
2015-Aug-22 23:18N 26°08' W 079°44'912.6
2015-Aug-22 22:33N 26°07' W 079°55'1111.0
2015-Aug-22 21:33N 26°06' W 080°07'1 0.5
2015-Aug-22 20:28N 26°05' W 080°07'0 0.0
2015-Aug-22 19:31N 26°05' W 080°07'0 0.0
2015-Aug-22 18:31N 26°05' W 080°07'0 0.0
2015-Aug-22 17:33N 26°05' W 080°07'0 0.0
2015-Aug-22 16:30N 26°05' W 080°07'0 0.0
2015-Aug-22 15:30N 26°05' W 080°07'0 0.0
2015-Aug-22 14:30N 26°05' W 080°07'0 0.0
2015-Aug-22 13:30N 26°05' W 080°07'0 0.0
2015-Aug-22 12:33N 26°05' W 080°07'0 0.0
2015-Aug-22 11:30N 26°05' W 080°07'0 0.0
2015-Aug-22 10:33N 26°05' W 080°07'0 0.0
2015-Aug-22 09:33N 26°05' W 080°07'8 7.6
2015-Aug-22 08:33N 26°01' W 079°60'1414.0
2015-Aug-22 07:33N 25°48' W 079°57'1414.3
2015-Aug-22 06:33N 25°33' W 079°56'27815.0
2015-Aug-21 12:00N 22°54' W 084°06'9012.9 090 / 101015.010.8 0.528.026.732.0
2015-Aug-21 05:00N 22°00' W 085°24'12521.3 090 / 131014.010.8 0.529.9 32.0
2015-Aug-20 23:09N 20°32' W 086°59'3 5.0
2015-Aug-20 22:31N 20°29' W 086°59'0 0.0
2015-Aug-20 21:31N 20°29' W 086°59'60 3.9
2015-Aug-20 06:00N 20°30' W 085°54'   100 / 161013.610.8 0.529.8 32.7

Dump ship's entire track history